Wind_Speed
8 8 9 8 8 7 6 4 1 3 2 1 2 1 4 4 1 3 7 6 2 2 3 2 3 3 4 6 8 6 3 2 4 4 3 3 11 27 22 18 26 26 24 22 21 21 22 21 19 17 15 14 12 11 14 17 19 18 16 16 17 17 16 16 16 17 18 19 19 19 19 18 18 18 17 17 17 16 15 14 13 12 12 12 12 12 16 17 14 14 14 15 14 14 15 16 17
8 7 7 6 7 4 1 3 2 2 3 1 2 2 4 2 0 3 6 4 2 3 1 3 6 6 7 9 9 5 3 2 2 3 0 7 17 21 18 21 28 26 24 22 22 22 22 21 18 17 14 14 12 11 13 17 20 19 16 15 15 16 16 15 16 17 18 19 19 19 18 18 17 17 17 17 15 14 13 12 11 11 11 10 11 10 14 17 14 13 13 14 14 14 15 15 15
8 6 6 3 4 4 1 3 1 2 3 4 3 4 4 5 5 5 5 4 6 5 2 1 5 3 4 6 4 3 1 1 4 2 3 12 14 15 21 25 28 26 25 23 23 23 23 21 18 17 14 13 12 11 13 17 19 18 16 15 15 15 15 15 16 16 17 18 18 18 17 17 17 17 16 16 14 12 12 11 10 10 9 9 9 9 10 15 13 12 12 13 13 13 15 14 12
8 6 5 2 2 4 3 2 2 5 4 4 3 6 5 8 7 5 5 6 6 2 0 2 3 2 3 6 2 2 1 2 5 3 5 11 12 19 26 28 28 24 24 23 23 24 23 21 18 16 14 13 12 12 13 16 17 16 15 14 15 15 15 14 15 16 16 17 17 17 16 16 16 15 14 14 13 12 11 11 10 9 9 8 9 9 9 12 13 12 12 13 11 11 13 12 10
6 5 4 3 2 1 2 2 2 4 5 4 3 6 7 9 6 4 4 4 3 2 1 3 2 3 3 4 1 1 2 4 5 4 6 10 15 24 27 27 26 22 23 22 22 24 22 21 18 16 14 13 12 12 13 16 16 15 15 14 14 14 14 14 15 15 15 16 16 16 15 15 15 14 13 12 12 11 11 10 9 9 8 8 9 9 9 10 13 14 12 11 10 10 12 10 9
4 4 5 5 2 1 3 2 2 3 6 6 4 6 8 6 4 4 1 1 2 2 2 3 3 1 3 2 1 2 2 4 4 5 8 13 19 25 25 25 24 22 22 21 22 23 22 21 18 16 14 13 12 11 12 15 16 15 14 14 14 13 13 14 15 14 14 15 15 15 14 14 14 13 12 11 11 11 10 10 10 10 10 10 10 8 8 9 12 14 11 10 10 11 11 9 7
3 2 4 4 1 1 3 3 5 4 5 6 5 7 6 2 3 1 3 1 1 4 4 3 5 5 2 1 1 2 1 2 5 8 12 17 21 24 25 24 23 22 21 20 21 22 21 20 18 16 15 14 12 11 11 14 16 15 14 14 14 13 13 13 14 14 14 14 14 14 14 13 12 12 11 11 10 10 10 10 10 11 11 10 9 7 7 8 11 13 11 10 11 11 10 8 6
3 1 1 4 1 2 3 3 4 4 5 4 4 7 2 3 2 2 3 1 0 1 4 4 5 5 1 1 1 3 4 3 7 12 17 21 23 24 24 23 22 21 20 19 21 21 20 19 18 16 15 14 12 11 11 13 16 15 14 14 14 13 12 13 14 14 14 14 13 13 13 12 11 11 11 10 9 10 10 10 10 10 9 8 6 6 6 8 10 13 12 11 11 10 8 7 7
4 2 1 3 2 0 0 2 4 3 5 4 6 7 1 1 2 2 3 3 0 3 5 4 4 5 2 2 1 4 4 5 11 16 20 22 23 23 22 22 21 21 20 18 20 20 19 19 18 16 16 14 12 11 11 12 14 15 14 13 14 14 13 12 13 14 14 13 12 12 11 11 10 11 10 9 9 10 10 10 10 10 9 8 7 7 8 9 12 13 13 12 11 9 8 8 7
3 2 2 1 3 2 3 3 3 3 6 4 6 8 2 3 3 3 4 4 3 5 4 3 5 5 6 3 0 4 0 9 16 18 20 23 23 23 22 20 20 21 20 20 21 20 18 18 17 16 15 14 12 11 11 11 13 15 15 14 14 14 13 12 13 13 13 12 12 11 10 10 9 9 8 8 9 9 9 9 10 10 9 9 8 9 10 11 13 14 13 12 10 9 8 8 7
2 2 3 2 2 3 4 4 4 4 5 4 7 7 4 6 4 3 4 4 4 6 4 3 4 6 7 4 1 3 5 13 18 20 20 22 22 22 21 19 19 20 22 22 21 19 19 18 15 15 15 14 12 11 10 10 11 15 15 15 15 14 12 12 13 13 12 12 11 10 9 9 8 8 7 7 9 9 9 9 9 10 10 9 9 9 10 12 14 15 14 11 9 8 8 7 6
2 1 4 3 3 4 4 3 5 5 6 4 6 5 5 7 4 4 6 6 4 6 5 4 6 7 7 3 0 1 7 13 17 21 21 21 21 20 20 19 19 20 22 23 22 20 19 17 15 15 15 13 12 11 10 9 11 15 15 14 15 13 11 12 12 12 11 11 10 9 8 7 7 7 6 6 8 9 9 9 9 10 9 9 9 9 10 12 14 14 13 11 9 8 7 7 5
3 2 5 2 3 3 3 2 4 4 5 4 5 4 4 6 7 9 9 8 8 7 6 6 9 6 5 4 2 3 6 11 17 22 21 20 20 19 20 20 20 21 22 23 23 21 19 18 17 15 14 13 11 10 9 10 11 13 14 14 14 12 12 12 11 11 10 10 9 8 7 6 6 6 5 6 7 7 8 8 8 9 9 8 8 8 9 11 13 13 12 10 9 8 7 6 4
3 3 5 2 1 2 3 2 2 1 4 5 4 3 2 4 6 7 9 9 8 6 5 9 11 6 4 5 3 4 7 13 19 21 21 20 19 19 19 20 20 21 22 22 23 22 20 19 18 15 14 13 11 10 10 11 11 12 13 13 11 12 13 12 10 10 9 8 8 7 6 5 5 4 4 5 5 6 7 8 7 7 7 7 7 7 7 10 12 12 11 10 9 7 6 4 2
4 2 4 2 0 0 3 4 3 3 4 5 2 2 4 5 3 5 9 10 6 4 8 9 7 4 6 9 6 7 12 20 21 22 22 20 20 20 20 21 21 22 22 22 22 22 21 20 19 16 15 13 11 11 11 12 12 12 13 12 10 12 14 12 10 10 8 7 7 6 5 5 4 3 2 3 4 5 6 6 6 6 6 6 6 6 6 8 11 11 11 9 9 7 6 4 1
3 3 4 1 2 2 3 4 3 3 5 5 3 2 5 6 2 5 8 7 6 4 6 5 4 2 8 8 7 13 20 24 24 24 23 21 20 20 20 21 21 22 22 22 22 22 22 20 19 17 15 12 11 11 12 13 13 12 11 11 10 13 14 12 11 10 8 7 6 6 5 5 4 3 1 1 3 4 5 5 5 5 4 4 5 5 4 5 9 10 10 10 9 8 7 4 1
3 4 3 1 3 4 4 4 4 3 5 6 5 4 4 7 1 2 2 8 11 6 4 2 1 1 6 5 11 23 27 26 26 25 24 22 22 21 21 21 21 22 21 22 21 22 21 20 19 17 14 12 11 13 13 13 13 11 11 10 11 12 12 12 12 11 10 8 7 7 6 5 4 3 1 1 2 4 4 5 4 4 3 3 3 3 3 3 6 9 9 10 10 9 7 5 2
2 3 2 3 4 4 5 6 6 3 4 6 8 4 2 7 1 1 3 8 9 7 4 3 5 6 7 12 23 29 27 28 26 26 24 23 22 21 21 21 21 22 21 21 21 21 21 19 18 16 14 12 11 12 12 12 13 12 11 11 11 11 10 11 12 11 10 9 7 7 7 5 4 3 2 2 3 4 3 4 3 3 2 2 1 1 1 2 3 6 9 9 10 10 8 6 4
2 3 2 5 5 4 5 6 4 3 5 8 10 6 3 5 2 3 3 7 9 9 4 5 8 9 11 17 26 28 26 28 25 24 23 21 20 18 19 20 21 21 21 21 20 20 20 18 17 15 14 12 12 12 12 12 12 11 11 11 12 12 11 10 11 10 10 9 7 6 7 6 5 3 2 2 3 3 3 4 4 2 3 2 2 2 1 1 1 3 6 9 10 10 9 8 6
2 4 3 6 5 5 5 5 6 6 7 8 9 7 4 3 1 3 4 7 7 8 7 8 10 10 11 14 21 25 25 26 24 22 20 20 19 17 17 18 19 19 20 21 20 20 19 17 15 14 13 12 13 12 12 12 10 10 9 11 12 12 11 10 10 9 9 8 7 5 5 6 5 3 2 1 1 2 2 4 5 4 4 4 4 4 4 3 3 2 4 6 9 10 10 9 8
2 4 5 6 4 4 6 6 8 8 7 4 7 7 4 1 2 4 6 6 3 5 10 13 15 15 15 13 16 20 20 21 22 20 19 20 18 17 16 16 16 17 19 19 19 19 18 16 14 14 13 13 13 12 12 11 10 9 9 11 12 11 11 10 9 9 8 7 6 5 5 5 5 3 1 0 1 2 3 4 5 5 5 5 5 5 6 6 5 5 4 4 7 10 11 10 10
2 3 4 5 3 4 6 5 6 5 4 3 5 6 2 1 2 6 8 4 3 5 7 8 13 17 17 17 16 16 14 17 19 18 19 19 18 17 16 16 15 15 17 18 18 18 17 15 14 13 13 13 13 13 13 11 10 10 10 11 11 11 11 10 9 8 7 5 4 4 4 4 4 3 1 1 3 3 4 5 6 6 6 6 6 6 6 8 8 7 6 6 6 8 11 11 11
2 4 3 5 6 5 4 3 4 3 3 6 4 4 2 1 1 6 6 3 6 2 4 6 9 12 15 17 17 15 13 13 16 17 18 19 18 17 16 16 16 17 17 17 18 18 17 16 14 13 13 13 13 13 13 12 11 11 9 10 10 10 10 9 8 7 6 4 3 3 4 4 4 3 2 3 4 5 6 7 7 8 8 8 8 8 8 8 10 10 9 8 7 7 9 12 12
3 4 4 6 7 7 6 5 6 5 6 8 5 5 5 4 4 2 3 3 4 4 9 12 12 13 15 14 14 14 12 12 14 17 18 19 18 17 17 18 18 19 18 17 18 18 17 16 14 14 13 13 12 12 12 11 11 11 10 9 9 9 9 8 7 6 5 4 3 3 3 3 4 4 5 6 7 7 8 9 9 9 10 10 10 10 10 9 10 12 12 11 10 9 9 11 13
3 5 5 5 6 7 6 6 7 6 6 6 5 6 5 6 5 3 3 2 2 8 12 15 16 15 14 13 14 13 12 13 14 15 14 15 17 17 18 19 19 19 19 18 18 17 17 15 14 13 12 12 11 11 11 10 10 11 11 10 10 9 8 6 6 5 5 3 2 2 3 4 5 6 7 8 10 11 11 11 11 11 11 11 11 12 12 11 10 10 13 13 13 12 10 10 12
5 6 5 5 6 7 5 6 6 5 4 4 3 3 0 3 4 3 3 6 6 10 14 15 16 16 14 12 13 13 13 13 11 12 13 14 17 17 18 19 19 20 20 18 17 16 16 15 14 12 11 10 9 9 10 10 10 11 10 10 9 8 7 6 5 5 4 4 3 3 4 6 7 9 10 11 13 14 14 14 14 13 13 13 13 13 14 14 13 12 12 13 14 14 13 12 13
4 5 5 6 8 8 4 5 5 2 4 6 5 1 2 1 2 2 4 9 9 12 15 14 15 14 14 13 12 10 10 11 11 12 12 14 16 16 18 19 20 20 19 18 15 14 15 15 13 12 11 10 9 8 8 9 9 9 8 8 8 7 7 6 6 5 4 4 4 5 7 8 10 11 13 14 15 16 16 17 17 16 15 14 14 15 15 15 16 16 15 14 14 14 15 15 15
2 3 4 7 6 7 4 4 6 2 3 5 8 3 2 5 3 4 7 11 10 13 16 14 13 11 12 12 10 6 7 13 17 16 13 14 15 16 18 19 20 19 18 17 15 13 14 15 13 11 11 9 8 7 7 7 7 7 6 6 6 5 5 5 5 4 4 5 6 7 8 10 12 13 14 14 15 16 17 17 18 17 17 16 15 16 16 16 18 19 18 17 17 16 16 16 16
2 1 3 7 7 6 5 3 3 5 2 5 8 3 4 5 1 5 9 12 10 12 16 13 11 9 9 9 7 5 6 11 16 15 15 16 16 17 18 18 20 19 16 16 13 12 14 15 13 12 11 9 8 7 6 7 6 6 5 5 4 4 3 3 4 5 6 7 8 9 10 11 12 13 13 14 14 15 16 16 16 16 16 15 15 16 17 18 19 20 19 18 18 18 18 18 17
2 0 2 4 7 6 7 1 4 5 3 7 8 1 4 6 2 8 10 13 14 12 13 12 9 7 7 8 6 6 4 6 10 11 12 15 16 16 17 17 18 18 16 16 13 12 14 15 13 12 11 10 8 7 7 6 6 6 4 4 4 4 4 5 6 7 8 9 10 11 12 12 12 12 12 13 13 14 14 15 15 15 15 15 15 16 17 18 19 21 19 18 18 18 19 19 18
1 1 1 2 2 5 8 1 6 4 2 5 7 2 5 5 3 10 9 11 16 13 12 11 8 7 9 8 5 6 4 4 8 12 12 12 14 14 15 17 17 18 17 16 14 12 15 16 14 13 12 10 9 7 7 6 5 4 3 4 4 5 6 6 7 9 9 10 11 11 11 11 12 11 11 11 12 12 13 14 14 14 14 14 15 15 16 17 18 20 19 17 18 18 18 19 20
2 1 2 3 2 5 9 2 7 5 1 1 5 2 4 3 5 10 8 10 14 14 13 10 9 9 9 7 6 5 3 4 10 13 13 12 13 13 14 17 18 18 17 16 14 13 14 15 14 13 12 10 9 8 7 5 4 3 3 4 4 5 6 7 7 8 8 9 10 10 10 11 11 10 10 10 11 12 12 13 13 13 13 14 14 14 14 15 16 17 17 16 17 18 18 18 20
3 1 2 1 2 3 7 3 3 5 2 1 2 4 2 1 7 10 9 8 8 12 12 9 9 10 8 5 5 5 4 6 9 11 13 14 14 14 15 17 18 18 17 16 15 13 13 14 14 13 12 11 10 9 7 5 3 3 3 3 4 5 6 7 7 7 8 9 9 9 9 9 9 9 10 11 12 12 12 13 13 14 14 14 14 13 13 13 14 15 16 17 17 17 17 18 20
3 1 2 2 3 2 4 4 2 5 5 2 4 5 4 3 9 11 7 3 3 10 13 10 10 9 7 5 5 7 6 6 7 9 13 15 15 15 16 17 18 17 17 17 16 13 13 13 13 12 11 11 10 9 7 5 3 2 2 3 4 5 7 7 7 8 8 8 8 8 8 8 8 9 10 11 11 12 13 14 15 15 14 14 14 13 13 12 12 14 16 17 16 17 17 18 19
3 2 2 2 1 2 3 4 2 3 5 4 5 4 3 3 10 11 7 4 5 8 9 7 10 9 6 6 7 7 7 6 6 9 12 15 16 16 16 16 17 16 16 15 15 13 12 12 12 11 10 11 10 9 7 5 3 2 3 4 5 6 6 6 6 6 6 6 6 6 6 7 8 9 9 10 10 11 12 13 14 14 14 14 14 14 14 13 12 13 15 16 16 17 18 18 18
7 4 4 3 2 2 4 4 5 2 5 5 5 5 5 7 11 11 9 6 3 4 3 1 4 7 6 6 8 7 7 6 7 10 13 15 16 16 17 17 16 16 15 14 14 12 11 11 11 10 9 10 10 9 7 5 4 4 4 4 5 5 4 3 3 4 4 5 5 5 6 6 7 8 9 9 10 11 12 13 13 13 13 13 13 13 13 13 12 13 14 16 16 17 17 18 17
5 4 4 3 2 3 4 3 7 4 3 1 5 7 7 9 11 10 10 6 3 5 6 2 5 4 8 7 8 7 5 6 9 11 12 13 14 15 17 16 16 16 14 14 14 12 12 12 11 10 9 9 10 8 6 5 5 4 4 4 4 3 2 2 2 2 3 4 4 5 6 6 7 7 8 9 10 10 11 12 13 13 12 13 13 14 14 13 13 13 14 15 16 17 17 17 15
4 5 3 1 1 4 4 1 7 5 1 2 3 8 8 10 11 9 10 8 7 9 12 10 7 5 7 9 9 8 5 5 8 9 9 11 11 12 14 14 15 15 14 15 15 14 13 12 10 10 9 9 9 8 6 6 5 3 2 2 1 1 2 2 1 2 2 3 5 6 6 7 7 8 8 9 9 9 10 11 12 12 12 12 13 14 15 15 15 15 14 15 15 16 17 16 14
3 3 3 0 2 4 4 2 6 4 2 3 0 6 6 7 7 11 12 11 9 8 8 11 9 7 6 9 10 8 7 6 6 7 8 9 10 11 13 13 14 15 13 14 15 14 13 12 10 10 9 8 8 7 6 5 3 3 2 2 1 1 1 1 2 4 5 5 6 7 8 8 9 9 9 9 9 10 11 12 13 14 14 13 13 14 15 16 16 17 16 16 16 16 17 16 15
4 4 4 2 3 1 2 2 6 5 2 1 3 4 1 1 3 7 8 4 3 3 3 3 6 3 3 4 8 8 8 7 6 6 7 8 9 10 11 13 14 14 14 13 13 12 12 12 11 10 9 8 8 7 6 5 5 4 4 3 1 1 2 4 4 6 7 6 7 8 9 9 9 9 10 10 10 11 12 14 15 16 16 16 15 14 15 16 17 17 17 18 18 17 17 16 16
2 4 5 3 3 3 3 2 4 5 5 2 6 5 5 1 4 5 2 3 5 6 4 3 3 4 4 4 4 8 8 7 7 6 6 8 8 8 10 13 13 14 14 14 14 13 13 13 12 11 10 9 9 8 7 7 6 5 4 3 2 1 3 5 6 6 7 8 9 10 10 10 10 10 11 11 11 11 12 13 14 15 16 16 16 16 16 18 18 17 17 18 19 19 19 18 17
2 4 6 7 5 5 2 3 5 5 4 2 4 2 4 3 5 6 4 4 6 4 3 4 3 4 3 3 2 4 8 7 6 7 7 7 8 8 9 11 13 13 13 13 14 14 13 13 13 11 10 9 9 8 8 7 6 4 3 3 3 4 4 6 7 8 10 11 11 11 11 11 12 12 12 12 12 13 13 14 15 15 16 15 15 16 18 19 19 18 17 18 19 20 21 20 20
2 5 7 7 6 5 2 3 3 2 1 2 3 3 3 4 4 6 6 7 7 4 6 8 7 6 8 5 3 2 7 7 6 7 7 7 8 8 7 9 10 11 11 12 13 13 12 12 12 11 10 10 9 8 7 7 6 5 5 5 5 4 5 6 7 8 9 10 11 12 12 13 14 14 15 15 15 16 17 17 17 17 16 15 15 15 17 18 19 19 18 18 19 20 21 20 22
3 5 8 9 7 7 5 4 3 2 2 4 4 4 2 2 5 4 7 8 6 5 8 9 9 8 10 10 5 3 6 8 6 8 7 7 8 8 7 8 8 9 10 10 11 12 11 11 11 11 11 10 9 8 7 6 5 4 4 5 5 6 6 6 7 7 8 10 11 13 14 15 15 16 17 18 18 19 20 20 20 19 17 16 15 15 17 18 18 19 19 19 19 20 21 21 23
5 6 9 9 8 7 6 6 4 1 1 4 5 2 3 4 5 2 8 8 6 8 11 10 10 10 11 12 10 6 6 8 7 8 8 8 9 10 10 10 9 9 9 10 11 12 12 13 14 13 13 11 10 8 7 6 5 5 5 5 7 7 7 7 7 8 10 11 13 15 16 17 17 17 18 19 19 20 20 21 20 19 19 18 18 17 18 19 18 19 18 19 19 19 21 22 22
4 6 7 5 4 3 3 5 4 2 2 3 6 2 2 3 4 3 8 8 8 10 11 11 11 12 12 11 13 10 7 8 8 8 9 9 10 12 13 14 12 10 10 11 13 15 16 17 16 15 14 12 10 9 8 9 7 6 6 7 7 8 8 8 9 10 11 13 15 16 16 17 18 18 19 19 19 20 20 19 19 19 20 20 19 18 19 19 18 18 17 18 20 21 23 23 23
5 6 5 4 4 4 3 2 4 3 2 5 7 6 4 2 4 4 7 8 11 11 8 9 10 12 12 10 11 11 8 8 8 8 10 11 12 14 15 16 15 13 13 14 16 17 18 18 17 17 16 14 12 11 10 10 8 6 7 8 9 10 10 11 11 12 12 14 15 15 16 17 17 19 19 19 19 19 19 18 19 20 21 20 20 20 20 20 19 18 18 20 21 22 22 23 23
6 4 4 2 3 3 4 4 3 3 4 6 5 6 5 3 5 5 6 7 12 13 11 13 14 13 13 10 10 10 8 9 8 8 9 10 11 13 14 15 17 17 16 17 17 18 19 19 18 18 17 14 13 11 9 9 7 7 8 8 9 9 9 10 10 11 12 13 14 15 17 17 17 18 19 19 19 20 19 19 20 21 21 21 20 20 20 19 19 18 18 20 20 21 21 21 20
5 5 6 4 1 1 1 2 1 3 5 4 2 3 3 4 6 6 8 8 11 14 13 14 15 13 12 11 11 9 8 9 8 7 7 7 8 10 12 14 16 18 18 18 17 18 19 19 18 18 17 13 11 10 9 8 7 7 8 8 8 8 8 8 8 9 10 11 12 13 15 16 17 18 19 20 21 20 19 19 20 20 20 19 18 18 19 19 18 17 17 18 18 19 20 19 19
6 5 5 5 3 3 4 3 0 2 4 2 1 1 2 4 4 3 5 5 6 8 7 7 10 9 9 11 11 8 8 10 8 7 7 6 7 10 11 13 15 17 18 17 16 16 17 17 16 17 16 12 10 9 8 7 7 7 7 8 8 7 7 7 7 8 9 10 11 12 13 15 16 17 18 19 20 20 19 18 18 18 18 18 17 18 18 18 18 17 17 17 17 18 20 19 19
5 4 5 5 4 5 4 3 3 3 3 2 2 1 2 2 3 4 3 3 1 6 8 7 9 9 8 10 11 8 8 10 7 7 8 7 9 12 11 12 14 15 17 17 17 16 15 15 14 15 14 11 9 9 8 7 7 7 7 7 7 6 6 6 7 7 8 10 12 12 13 13 14 16 17 18 19 19 19 18 17 17 18 18 18 18 18 18 18 18 17 17 17 17 17 18 18
2 3 5 4 5 5 1 2 5 4 2 1 1 1 2 2 3 3 1 2 4 8 10 9 9 9 9 10 11 9 7 10 9 7 8 9 11 13 12 13 14 14 15 16 16 15 15 14 13 12 12 10 9 8 7 7 6 6 6 5 5 5 6 7 7 7 9 10 11 11 11 11 12 15 17 18 18 17 17 17 17 17 17 18 18 18 18 17 17 18 17 16 16 15 15 14 15
1 3 5 4 4 6 3 1 0 3 3 1 1 1 2 1 3 0 6 7 6 9 10 11 9 9 10 7 9 9 6 9 9 8 9 10 12 14 13 13 13 14 13 13 15 15 14 13 12 12 11 10 9 7 7 6 6 6 6 6 5 5 5 5 5 6 8 8 10 11 10 10 12 14 16 17 16 15 15 16 17 18 18 18 18 18 18 17 17 19 19 16 15 15 15 14 14
6 4 5 3 3 3 3 1 2 4 2 1 1 2 2 1 2 3 9 9 9 10 10 11 9 9 9 4 4 8 8 9 9 8 10 12 13 15 16 16 14 14 14 14 16 15 14 12 11 11 10 9 8 7 6 6 6 6 6 5 4 4 5 6 6 6 6 8 10 10 9 10 12 13 15 16 15 14 15 15 17 17 18 18 17 17 18 17 18 20 21 19 17 15 15 15 15
5 5 7 5 3 2 1 2 1 2 2 1 2 3 3 2 2 5 10 11 12 11 9 11 11 9 10 7 5 8 10 10 10 9 8 11 13 14 17 19 16 16 16 16 16 15 13 12 10 10 9 8 7 6 6 6 6 7 7 6 5 5 5 6 6 6 6 8 9 8 8 10 12 13 14 14 14 14 15 16 16 16 17 17 16 17 18 18 18 19 20 21 21 18 16 15 16
4 5 6 3 3 4 3 3 3 3 3 1 0 2 3 3 4 8 12 11 13 13 11 13 13 10 11 10 8 9 10 9 9 9 8 10 14 14 15 17 16 16 17 16 15 13 12 10 8 8 7 6 6 5 5 5 5 6 6 6 5 4 4 4 4 3 6 6 6 6 8 11 12 13 13 12 13 13 14 15 16 16 17 17 17 17 19 20 20 20 20 21 23 22 19 18 18
4 5 6 3 2 2 2 1 2 4 4 3 2 1 5 5 3 7 11 10 12 14 13 12 12 12 12 10 9 9 10 9 9 10 9 12 16 15 16 17 17 17 18 17 15 13 12 10 8 8 7 7 7 7 6 6 5 5 4 3 2 3 3 3 2 4 4 4 4 7 9 11 12 11 12 13 13 14 14 15 17 18 19 19 19 19 20 21 22 21 21 21 23 23 22 22 21
6 5 5 5 3 4 3 1 1 3 4 3 4 2 6 5 2 4 7 9 10 11 11 9 9 12 12 11 9 9 11 11 9 9 9 13 16 15 16 19 20 20 20 18 16 15 14 11 9 9 8 8 6 5 4 4 3 4 4 4 3 2 2 2 2 3 3 4 7 9 9 10 10 10 12 14 15 16 16 17 19 20 21 20 20 19 19 21 22 22 22 22 22 23 23 23 22
Wind_Direction
343 348 350 354 346 339 350 46 43 324 77 126 263 294 261 228 178 293 305 316 350 323 288 358 25 53 102 120 141 134 92 162 165 149 208 244 141 152 158 160 161 157 155 162 164 162 161 157 153 149 147 145 136 128 137 147 144 135 131 131 130 127 126 124 124 123 123 124 123 123 121 121 118 116 114 112 110 109 110 109 112 113 110 106 106 108 119 121 109 107 106 102 104 111 114 109 108
352 353 356 3 8 7 309 71 97 305 75 204 258 229 263 295 16 240 281 305 230 218 225 89 83 69 73 100 115 104 50 7 166 163 155 138 138 149 161 163 161 158 156 160 162 161 160 157 155 151 148 147 138 129 138 149 146 137 132 129 128 125 124 124 124 124 124 124 123 123 122 121 119 118 116 113 112 112 112 110 111 110 112 113 116 116 124 128 114 108 109 108 106 111 118 114 113
359 2 8 25 24 34 68 43 124 159 142 208 251 256 274 299 253 204 250 227 190 191 189 111 93 80 64 78 67 67 121 69 133 132 123 143 143 153 163 164 163 159 156 158 160 161 159 158 157 152 150 149 139 131 139 150 147 138 133 128 127 124 124 124 124 126 125 124 123 123 122 121 120 117 116 115 111 107 104 100 99 99 105 106 113 116 127 135 128 116 110 113 108 109 123 123 120
4 11 12 71 54 32 68 50 157 151 179 207 240 261 250 261 245 183 237 201 175 185 164 27 50 334 57 90 55 55 111 125 136 131 138 158 159 157 161 162 161 157 154 157 160 161 159 160 159 153 151 150 141 134 139 150 148 137 132 128 127 126 124 124 124 125 124 124 123 123 122 121 119 116 116 115 109 103 99 94 91 91 93 92 100 106 119 135 138 133 119 117 112 115 130 129 124
6 29 25 78 106 62 108 103 128 157 195 195 195 250 237 244 246 192 238 196 188 352 67 75 60 316 56 98 139 119 118 117 140 139 137 161 163 158 159 159 157 153 154 157 160 160 160 161 160 154 152 151 143 136 139 149 148 136 131 129 129 128 126 125 125 125 124 125 124 124 123 121 119 115 114 112 109 104 100 93 92 92 92 94 97 99 110 129 141 143 129 120 116 126 137 133 125
17 58 46 64 103 159 125 147 174 197 215 188 176 244 240 234 222 202 283 206 231 37 85 92 117 125 67 45 72 119 148 128 136 153 152 157 159 158 157 157 154 152 154 157 159 159 159 162 160 155 153 152 145 137 137 147 149 138 133 132 131 130 128 127 127 128 127 126 125 125 123 122 119 116 115 112 110 104 98 91 89 87 86 89 91 92 99 118 140 144 134 126 129 137 142 136 123
51 74 32 65 45 32 123 184 198 216 235 190 180 234 227 163 171 160 29 150 275 34 61 89 124 115 77 311 87 48 27 144 148 162 162 153 155 157 156 156 152 151 154 157 158 158 158 161 160 156 155 152 145 138 135 146 151 142 137 136 134 134 132 131 129 130 129 126 126 127 126 124 121 119 113 106 102 98 93 88 85 82 83 87 94 100 98 110 138 147 141 139 142 145 146 137 115
76 102 21 100 84 9 120 208 223 208 244 224 222 241 177 120 151 31 360 189 223 38 87 111 113 98 360 348 77 347 28 122 156 160 157 151 154 155 156 155 150 150 153 156 155 156 158 160 160 158 156 152 146 138 134 143 152 147 141 142 140 139 138 135 132 132 130 129 129 129 129 125 122 118 110 104 99 93 89 86 86 82 85 96 108 114 106 112 136 152 156 155 155 152 146 129 109
58 56 118 106 135 19 84 250 253 225 253 263 259 262 35 101 173 95 278 294 284 146 133 149 105 104 163 55 33 319 20 124 145 150 151 151 156 155 155 153 150 150 151 153 153 155 157 160 161 158 155 153 148 140 136 141 151 154 148 147 146 142 142 139 136 134 133 133 133 131 130 127 123 118 112 108 98 89 86 84 84 79 79 89 100 105 107 116 134 150 160 164 162 155 139 121 107
41 27 141 101 129 187 279 256 251 243 248 255 264 260 293 279 237 184 217 267 227 146 137 123 74 116 145 113 48 307 349 146 138 138 148 151 155 155 154 152 151 150 150 152 152 157 157 158 160 157 155 155 152 142 139 142 151 160 156 153 150 144 145 143 138 136 136 138 137 136 135 131 124 116 110 100 92 86 83 81 79 76 75 80 89 101 111 123 136 147 156 162 162 149 131 120 102
46 349 114 112 117 188 233 242 255 256 266 289 276 253 221 237 232 219 208 240 218 138 149 112 94 129 120 120 268 300 165 147 137 135 146 150 151 153 154 153 152 151 149 151 154 158 156 156 157 155 159 158 154 145 142 144 151 162 162 159 153 146 148 145 138 138 138 140 143 142 140 133 125 117 109 94 86 82 79 77 73 73 74 75 82 97 113 127 140 148 153 157 153 141 129 118 97
105 329 74 119 169 197 208 230 256 270 289 291 271 253 203 215 198 202 197 215 195 137 185 163 150 142 110 139 245 224 151 140 138 139 146 147 146 150 154 153 152 151 150 153 156 157 156 156 156 158 163 161 154 147 146 146 153 162 162 161 154 147 149 145 140 141 141 144 148 145 141 135 128 120 108 90 78 74 73 68 64 67 69 69 75 94 115 132 143 149 154 154 146 140 128 112 96
129 151 93 144 195 179 176 211 263 299 301 258 246 250 178 199 211 201 188 198 175 154 210 169 154 140 108 140 122 184 158 139 139 141 145 143 145 149 151 151 150 152 153 156 155 155 157 156 159 162 163 161 155 150 150 152 156 160 160 157 153 150 149 145 143 145 145 146 149 146 143 138 129 121 107 90 74 67 65 59 55 57 62 63 69 90 118 137 147 154 157 154 148 142 127 113 100
146 152 123 173 215 147 175 212 270 299 283 260 234 267 189 204 228 201 170 183 186 170 170 150 148 124 112 137 144 215 164 144 141 141 145 143 148 148 147 150 152 154 156 157 155 156 159 159 163 165 164 162 157 153 155 157 155 156 155 151 151 155 150 145 146 147 148 147 149 148 143 141 135 124 107 89 70 57 54 50 49 50 56 61 62 79 116 142 151 158 161 158 154 145 134 127 99
163 129 101 135 237 230 212 209 203 183 251 269 221 316 303 253 219 172 173 175 200 180 122 137 160 129 163 166 182 200 151 144 144 141 145 145 149 147 148 152 155 157 158 159 157 159 161 163 166 166 167 162 158 159 158 154 151 152 150 147 152 155 151 149 148 147 149 148 153 151 141 143 139 126 111 81 59 49 43 37 39 42 49 59 61 67 102 146 158 164 167 166 162 154 152 153 98
145 98 76 115 214 226 214 200 165 170 250 259 241 358 326 279 155 164 208 161 146 158 116 147 206 159 169 178 182 161 142 143 145 143 143 142 145 146 151 155 156 158 159 161 161 164 165 166 167 167 167 162 161 161 157 152 151 154 150 150 152 153 156 156 150 146 148 150 159 160 154 153 145 134 115 47 36 33 31 27 27 30 34 51 63 64 84 144 168 174 176 175 173 168 170 176 136
79 82 88 180 204 204 201 196 174 192 260 272 293 6 350 301 54 141 264 116 128 136 85 103 279 85 150 163 149 141 138 143 144 143 141 140 144 147 152 157 158 160 162 164 164 167 169 169 169 168 164 162 163 160 157 152 152 155 153 151 150 154 162 164 158 151 153 158 166 169 168 168 167 176 212 342 3 10 20 20 13 15 15 26 50 64 74 126 174 187 188 187 186 182 185 192 183
80 101 142 210 199 203 189 188 196 207 282 290 301 340 329 298 35 65 25 98 114 103 73 74 56 58 98 115 128 132 135 140 141 143 142 143 148 149 152 157 160 162 164 165 168 171 170 170 171 168 164 163 161 157 155 149 154 161 159 153 152 159 164 169 171 166 167 172 179 187 186 187 195 208 257 322 357 3 12 14 5 360 351 342 349 32 66 97 174 197 203 204 200 196 198 205 208
134 127 170 224 198 213 197 189 219 236 278 292 304 321 317 277 159 94 85 126 125 112 100 96 96 96 100 111 122 128 134 138 144 148 146 147 150 150 151 155 160 161 163 165 170 174 173 170 171 169 165 164 159 152 149 148 157 166 165 160 157 163 169 174 178 179 184 188 192 203 206 210 217 236 281 333 356 352 9 20 15 353 328 308 293 294 297 300 204 207 213 219 216 211 211 217 220
174 139 200 243 206 233 233 210 239 249 264 291 303 318 357 284 157 79 120 141 137 138 147 138 135 131 122 123 125 129 135 140 148 152 152 152 152 153 152 155 160 162 163 167 170 176 176 170 169 170 164 163 157 146 146 151 157 162 162 162 163 168 177 179 181 186 194 200 206 219 223 222 230 250 285 346 328 324 18 25 19 9 346 323 298 287 285 282 278 256 232 229 227 223 222 228 229
184 164 201 237 194 233 249 221 238 255 255 263 290 324 18 311 47 95 139 137 154 201 187 166 156 147 138 137 131 132 136 140 150 157 156 155 155 157 158 158 162 163 164 167 171 177 179 173 171 169 163 160 154 145 149 156 156 159 159 162 169 173 180 184 187 192 198 207 217 228 227 219 218 214 205 34 335 328 350 354 356 359 354 343 321 294 280 275 274 272 261 245 236 232 229 233 234
171 225 212 229 208 233 248 225 234 249 251 264 292 327 351 294 60 137 156 166 235 222 205 174 152 150 146 143 139 135 136 142 152 159 158 157 158 158 159 160 161 164 165 168 174 179 180 176 175 169 161 158 156 153 155 160 163 168 163 163 171 175 180 183 185 186 188 198 203 211 209 197 193 183 194 317 331 328 326 325 326 327 332 337 331 314 288 271 267 266 265 259 249 240 234 234 235
212 271 253 239 238 237 248 241 237 230 274 284 281 316 330 74 96 159 148 276 272 185 129 125 127 135 137 139 140 139 136 144 154 161 163 160 160 159 160 162 164 168 171 175 178 181 180 178 180 172 163 161 164 167 165 163 170 176 168 167 175 173 176 177 175 174 174 179 178 189 192 190 197 215 276 306 316 319 321 321 317 314 316 320 323 322 312 288 270 262 262 262 257 252 240 234 233
213 261 282 261 247 238 243 254 261 256 265 269 264 309 294 169 161 155 87 314 278 102 104 115 118 121 126 131 133 133 131 142 158 166 167 161 159 159 162 166 169 172 176 181 182 182 181 180 181 175 167 167 172 176 174 171 171 173 172 177 182 178 178 175 171 174 177 175 172 192 206 223 248 280 302 313 313 314 316 315 313 310 310 314 316 316 318 313 290 270 262 261 260 260 252 238 232
220 232 264 268 256 246 249 263 272 269 258 253 264 304 277 186 145 79 67 47 87 104 109 120 126 126 127 129 128 130 140 153 164 164 160 157 154 155 163 170 171 173 178 183 186 184 182 181 180 175 171 172 176 179 181 179 171 172 178 184 185 186 185 178 179 184 190 197 212 242 261 276 293 304 310 314 313 313 312 312 310 306 305 306 308 309 311 314 310 289 270 266 266 266 263 250 238
222 216 246 261 274 276 272 272 265 261 249 209 246 323 358 159 106 79 120 120 118 115 119 129 133 132 129 131 139 150 157 155 153 148 146 150 153 157 165 170 171 174 179 181 184 184 181 180 178 174 171 171 174 177 182 183 177 177 181 183 185 191 190 186 193 199 210 228 252 281 300 305 308 309 310 311 311 312 312 311 309 306 304 302 302 304 304 304 306 302 290 280 275 274 272 267 258
203 201 254 256 266 281 264 267 271 252 246 200 183 192 199 253 74 131 148 129 128 121 123 133 133 133 135 143 157 159 145 127 126 134 139 151 158 162 167 171 174 176 178 180 181 181 178 178 176 172 171 171 171 173 181 183 182 182 180 181 188 195 192 192 201 214 232 251 280 299 308 308 307 306 307 310 311 312 311 309 309 306 303 302 301 300 297 296 294 293 293 291 285 282 278 274 271
213 196 295 282 282 293 241 256 274 195 245 207 152 148 292 340 28 157 150 133 134 129 128 133 134 136 141 154 162 138 117 132 145 152 153 162 165 166 173 176 176 176 177 181 182 175 173 177 176 174 173 172 173 175 181 181 180 180 179 184 193 200 198 203 217 239 259 279 297 304 308 305 305 306 308 311 311 310 309 308 308 306 305 304 301 299 296 291 286 285 286 285 283 282 279 275 275
278 184 320 301 342 331 250 237 231 173 197 182 133 68 335 342 347 154 141 133 135 133 131 134 140 139 141 157 158 121 125 149 155 161 165 168 168 170 176 178 175 175 176 180 181 173 173 177 177 178 176 175 177 175 175 175 177 181 186 191 201 215 223 242 265 280 288 296 303 306 309 308 308 309 309 308 307 306 306 306 306 307 308 307 303 301 300 295 290 288 285 283 281 278 275 273 276
277 347 77 315 2 329 266 136 145 164 183 175 137 67 284 303 260 152 144 141 139 137 138 141 141 138 150 165 152 117 129 151 145 153 166 169 170 172 173 176 177 174 176 180 177 172 176 179 179 181 180 181 181 177 178 178 182 192 205 217 234 254 270 286 291 296 301 304 305 306 308 307 307 306 302 300 299 300 301 302 305 308 311 310 306 303 301 300 297 293 292 291 287 283 278 274 275
290 296 47 8 25 282 286 86 138 142 223 183 117 114 243 283 203 155 154 150 143 144 148 148 144 147 161 173 154 124 141 155 133 144 164 171 171 172 172 176 179 178 179 179 176 174 177 180 184 186 186 189 190 189 192 189 190 204 227 246 265 282 286 289 293 301 307 305 301 300 301 301 302 300 296 296 299 302 302 303 307 310 311 309 305 302 298 297 296 295 295 295 290 287 284 278 275
29 209 295 354 155 268 305 265 150 133 257 239 109 148 255 275 184 162 158 161 149 148 156 152 149 154 161 173 157 129 145 133 119 135 154 168 171 172 176 177 179 183 182 178 177 177 179 184 189 192 193 198 202 206 207 203 207 224 243 259 279 292 295 299 303 303 299 294 292 292 296 296 297 300 301 304 305 304 304 304 307 310 310 307 303 299 294 292 293 295 295 293 290 288 285 281 275
1 133 227 290 179 267 315 293 140 114 122 332 96 153 223 248 181 171 156 164 155 147 154 149 150 163 163 162 153 137 140 126 112 123 139 155 168 172 176 178 181 188 186 182 181 179 179 186 194 198 201 205 211 217 215 213 220 228 242 260 278 293 296 295 293 289 287 287 290 293 296 298 300 305 308 306 304 304 305 306 307 309 309 309 309 303 293 290 293 295 294 291 290 290 286 280 272
321 12 173 234 201 193 296 301 17 80 109 47 38 130 196 212 171 169 139 117 168 159 161 154 153 171 167 142 147 150 143 133 124 121 128 144 160 169 173 178 185 189 188 186 184 181 180 185 194 200 204 208 211 214 214 211 210 209 235 264 279 288 286 285 287 292 297 299 300 302 304 307 306 306 306 303 304 306 306 306 307 308 309 311 315 313 306 297 292 290 289 288 290 289 286 282 277
194 182 151 233 237 174 255 280 305 42 94 107 71 107 201 194 164 159 131 135 189 173 166 165 157 162 161 140 149 158 147 136 128 121 124 136 148 159 169 177 184 186 187 187 184 184 182 183 191 197 203 207 205 207 210 207 207 221 243 262 274 281 287 295 301 302 308 310 312 316 316 316 313 309 309 309 310 311 310 311 313 313 311 310 310 311 310 306 301 293 286 284 285 285 284 283 282
177 173 144 155 169 229 245 260 273 345 84 122 132 150 166 164 168 155 145 162 162 110 86 292 178 149 147 147 154 162 151 133 120 121 125 132 140 150 161 171 175 175 178 181 181 182 180 179 184 189 197 202 202 206 209 206 213 230 242 258 270 276 288 307 316 318 322 320 321 328 327 325 321 319 320 320 322 323 322 322 321 320 316 310 303 300 302 301 301 297 290 286 284 285 285 283 285
141 124 118 121 139 262 272 275 291 326 65 142 147 157 166 165 174 159 150 150 99 113 136 229 265 179 157 164 165 160 147 123 113 118 123 128 136 145 156 163 165 164 164 170 173 173 174 176 177 176 181 191 196 200 200 201 213 226 243 262 269 272 292 314 336 342 339 341 342 343 345 344 340 340 338 335 337 336 333 330 325 322 317 310 304 301 301 297 293 291 288 285 282 281 280 280 286
109 119 124 64 157 256 271 269 303 322 53 311 106 134 175 178 171 152 143 152 163 176 173 178 234 239 171 164 168 153 128 111 108 110 115 122 130 141 152 157 158 157 157 166 170 169 173 175 171 166 168 181 188 193 195 199 209 219 238 259 277 282 284 299 329 360 7 16 12 8 10 9 5 6 3 357 354 348 343 338 332 327 319 311 307 306 306 302 296 292 287 282 278 275 273 275 279
114 113 125 205 243 268 288 319 323 334 82 297 93 131 191 200 161 152 163 179 182 188 182 169 187 225 202 170 163 145 126 119 109 106 109 115 122 134 146 150 153 155 155 164 170 169 172 173 171 170 168 176 181 183 185 184 187 192 203 218 269 289 309 357 31 48 44 35 30 28 25 20 16 13 12 8 3 356 348 342 337 332 326 319 311 307 308 306 301 297 291 284 279 274 269 266 263
126 128 139 211 258 249 267 313 325 333 54 166 142 106 274 304 111 150 171 188 126 73 34 124 155 193 245 177 144 137 135 128 117 113 113 117 120 125 138 146 151 155 152 158 166 167 169 170 170 168 164 166 167 162 161 164 171 178 186 200 209 187 59 48 52 56 46 37 34 30 24 19 17 15 11 7 359 353 345 339 336 331 329 325 316 306 307 310 305 301 295 287 280 273 265 261 259
182 173 163 185 227 197 209 286 325 346 10 87 102 49 337 344 158 164 104 59 78 66 47 48 69 68 358 343 102 129 132 127 122 120 122 123 119 116 130 145 152 154 152 157 164 165 167 167 163 160 157 157 157 157 159 164 168 169 180 183 157 82 46 37 33 29 20 19 19 19 17 12 12 11 5 359 351 344 339 334 331 326 324 322 317 311 308 311 310 306 300 290 280 271 267 266 264
221 222 194 176 175 196 244 359 18 30 2 328 91 70 301 303 204 185 138 128 116 94 135 144 108 111 118 341 336 128 120 119 121 122 131 126 117 116 126 144 152 152 154 159 163 163 162 159 155 155 157 158 159 160 157 154 148 133 131 125 85 45 37 31 19 10 7 10 10 7 7 5 4 1 356 352 348 344 340 335 330 324 320 316 314 312 310 310 309 306 303 296 286 280 274 267 266
209 233 190 163 150 167 172 49 53 81 234 287 74 147 251 310 246 194 156 151 135 143 193 181 168 169 165 167 255 191 125 125 128 127 131 120 116 118 120 136 145 147 153 158 159 159 156 152 150 150 151 151 150 148 141 132 123 103 87 85 76 55 48 35 18 13 10 8 3 354 355 358 357 353 350 349 347 344 341 338 335 331 326 321 316 311 310 308 304 301 299 296 292 291 284 268 265
222 226 159 152 157 171 177 140 150 201 245 322 11 122 147 289 251 190 147 150 144 171 210 201 175 178 183 168 173 205 144 136 139 135 129 116 119 123 120 126 133 140 148 152 151 148 148 146 142 140 137 135 134 135 130 117 106 96 90 90 81 65 51 37 23 14 6 2 356 348 347 347 347 347 345 344 342 341 340 338 336 334 331 328 324 317 312 309 305 302 300 298 294 292 290 278 270
231 202 147 158 173 180 181 161 178 209 56 319 308 128 135 269 273 143 144 161 170 189 208 209 182 181 193 165 151 179 164 140 142 140 129 124 129 133 132 129 126 130 135 138 137 132 132 133 132 132 128 126 128 128 121 108 97 94 94 84 68 56 40 27 14 360 355 353 348 343 340 339 340 340 339 338 339 340 339 338 338 337 335 333 329 321 312 308 305 303 303 302 297 293 291 286 278
219 162 123 110 109 110 138 147 153 94 90 247 253 197 150 270 279 137 151 181 194 199 206 207 191 187 192 166 154 169 158 142 147 138 131 137 142 143 140 131 124 123 122 126 130 128 128 129 129 124 118 119 119 116 110 100 93 87 76 60 45 32 15 3 352 347 347 345 342 341 340 339 338 336 335 338 340 341 341 342 342 341 340 338 334 328 321 317 312 307 306 304 301 296 289 284 280
146 139 110 69 47 51 66 85 99 103 254 247 227 202 170 263 274 172 173 196 194 194 198 195 192 186 182 166 156 160 150 146 150 136 137 144 144 143 139 131 127 127 127 127 129 131 130 128 126 119 114 114 111 107 102 93 85 69 54 38 23 11 1 355 350 350 350 347 344 342 340 340 338 337 339 342 344 345 346 346 347 348 348 346 342 337 332 329 324 318 314 309 306 301 290 283 280
117 114 119 107 329 12 33 4 60 136 251 259 231 199 160 203 256 213 200 194 183 190 191 185 186 178 170 161 151 153 149 145 142 134 140 142 139 141 141 134 131 133 133 130 129 130 128 127 126 119 112 109 105 101 97 88 75 56 40 21 10 3 358 357 357 1 358 351 345 341 341 343 344 346 349 352 352 351 352 354 355 355 353 348 343 341 337 334 329 323 318 314 312 311 301 291 284
125 100 113 133 281 353 282 268 188 205 242 253 225 167 159 224 246 227 210 195 186 193 192 186 183 171 162 157 149 151 148 139 135 131 137 144 144 144 143 137 134 133 133 131 128 125 123 123 123 117 108 104 103 98 91 80 59 40 23 8 4 3 1 360 1 7 3 354 351 351 354 357 357 356 357 360 358 354 358 1 356 353 351 347 343 343 343 341 335 325 317 313 314 317 313 303 291
159 141 133 144 145 157 219 236 328 257 243 277 343 159 226 262 273 255 224 225 206 180 166 165 167 159 153 149 143 147 145 135 129 130 138 151 148 142 142 139 135 132 131 131 128 123 119 117 115 111 105 104 102 91 79 62 41 25 12 2 0 1 1 4 7 8 3 0 4 8 9 10 9 4 360 0 358 355 357 358 352 351 355 354 349 347 347 349 346 339 331 327 325 323 320 314 304
164 149 129 145 159 158 204 211 177 218 231 317 336 189 195 222 281 301 272 273 233 124 111 117 141 146 143 142 138 141 142 132 127 133 136 139 135 134 136 136 134 133 131 131 127 123 118 112 108 106 103 101 92 79 65 50 38 27 12 4 10 17 21 26 25 18 17 17 15 13 13 16 17 12 5 1 360 359 357 357 358 360 360 357 354 352 350 349 349 348 345 342 340 336 328 319 312
190 133 123 175 187 143 121 189 172 176 173 348 318 226 212 209 283 312 134 154 136 122 114 119 137 143 143 146 142 140 143 135 134 137 130 125 125 126 129 129 129 130 130 128 127 125 122 116 110 105 102 94 81 69 58 52 45 29 18 24 41 43 41 38 34 33 33 33 29 20 15 20 18 10 6 4 1 1 359 1 7 5 1 357 355 354 350 347 351 354 351 348 347 347 344 333 323
160 150 166 195 160 119 105 233 76 87 134 218 317 253 255 290 310 181 132 132 133 132 130 135 148 149 144 145 137 134 136 129 131 136 129 124 124 122 118 116 119 124 124 123 123 124 123 120 116 110 101 89 78 68 65 65 50 38 45 53 44 27 31 37 37 40 31 25 29 18 6 16 18 7 6 5 1 2 3 6 8 7 5 3 0 359 355 353 360 2 360 356 351 349 350 351 347
135 183 196 156 100 96 105 188 358 52 143 259 334 211 203 174 289 172 148 146 149 150 143 141 152 147 134 120 113 130 129 117 115 122 127 128 129 127 121 116 116 120 122 122 122 120 116 112 108 103 94 86 81 75 75 67 48 53 68 64 44 42 65 63 45 35 16 5 11 2 353 16 23 12 10 8 2 5 8 8 9 8 7 8 8 6 1 2 9 9 8 7 1 356 355 358 358
129 175 185 147 152 202 117 152 191 115 160 284 320 263 229 193 228 186 169 166 159 156 147 146 157 149 131 133 144 134 127 120 117 119 124 124 127 131 127 123 122 124 126 124 120 114 107 101 94 91 89 88 86 77 73 64 61 80 87 84 81 75 62 37 14 10 9 5 4 360 9 28 26 16 14 11 7 11 12 12 13 10 8 13 17 11 5 8 13 13 13 13 10 8 5 4 7
77 136 176 155 147 171 158 161 166 144 155 180 283 293 266 229 218 195 185 176 161 159 158 156 160 151 136 142 150 136 124 127 129 128 125 121 123 128 127 125 128 132 131 125 118 111 104 100 94 92 93 92 88 84 83 82 87 95 89 75 61 42 23 2 347 5 14 8 8 22 35 35 26 18 16 16 15 18 21 21 19 15 16 21 21 16 10 11 14 16 18 17 14 17 17 14 14
126 150 183 181 97 121 151 146 101 125 145 161 141 221 258 248 216 193 190 179 167 164 160 157 152 143 137 137 139 134 126 126 127 130 132 125 124 130 132 132 135 135 130 125 121 119 116 114 110 107 106 102 98 95 95 98 101 96 90 76 43 22 17 14 41 49 23 7 35 49 49 39 28 23 25 26 27 30 32 30 27 26 27 27 25 21 19 20 22 23 26 24 20 21 22 20 17
161 168 182 175 140 117 141 220 295 107 123 163 155 186 257 259 263 214 188 168 169 164 151 144 138 136 134 129 134 137 129 125 126 134 136 125 125 133 136 136 137 134 128 125 125 124 121 120 118 119 118 113 108 100 90 95 97 87 85 83 64 37 19 21 71 79 64 64 65 60 52 41 33 33 38 38 37 38 38 36 34 32 31 31 30 28 28 30 32 32 32 29 26 25 23 22 19
Height
767 767 766 766 765 764 767 769 783 791 792 803 799 794 785 774 776 774 772 769 770 772 767 766 764 762 764 767 772 775 779 780 782 792 791 774 770 773 774 778 780 783 786 788 790 791 793 794 794 795 797 797 798 799 800 800 802 802 804 805 806 806 807 808 809 809 809 809 810 811 812 812 813 813 814 815 815 815 816 816 817 818 818 819 819 820 821 821 822 822 822 822 823 824 825 826 826
767 767 766 766 765 766 773 775 792 801 798 809 803 791 781 773 777 776 772 770 772 770 765 765 765 766 766 765 768 774 777 776 774 776 775 772 774 775 777 779 781 784 785 788 790 792 794 794 795 796 797 799 799 800 801 802 803 804 806 807 807 808 809 810 810 811 810 811 811 812 813 814 814 815 815 816 816 817 817 818 818 819 819 819 820 821 821 822 823 823 823 824 824 824 825 826 827
766 767 766 766 767 769 776 779 794 805 805 810 801 786 777 775 776 773 768 767 768 765 765 765 765 768 769 769 770 774 777 774 772 773 774 774 775 776 779 779 781 784 785 788 790 792 794 795 796 797 798 800 801 802 802 803 804 806 807 808 809 810 811 811 812 812 812 812 813 814 815 815 816 816 817 817 818 818 818 819 819 819 820 820 821 821 822 823 824 824 825 825 826 825 826 826 827
767 767 766 766 771 775 781 787 794 799 805 809 800 783 774 773 771 769 765 764 765 763 765 766 768 768 767 772 773 775 777 774 772 772 774 775 775 776 778 780 782 784 786 789 791 793 794 796 797 798 800 801 802 803 804 805 806 807 809 810 811 812 812 813 813 814 814 814 815 816 816 817 817 818 818 818 819 819 819 819 820 820 820 821 821 822 823 823 824 825 826 827 827 827 827 827 828
767 767 767 766 774 779 783 795 800 798 797 799 793 779 770 768 767 766 764 764 764 764 765 766 772 769 766 772 773 776 776 775 773 772 774 775 776 777 779 781 783 785 787 789 791 793 794 796 798 799 801 802 803 804 805 806 807 809 810 811 812 813 814 814 815 815 816 816 816 817 818 818 819 819 819 819 820 820 820 820 821 821 821 822 822 823 823 824 825 825 826 827 828 828 828 829 829
767 767 767 767 774 778 785 797 801 797 787 783 782 773 766 765 766 765 763 765 763 763 763 766 771 771 773 773 771 774 774 775 774 773 774 775 777 778 781 782 784 786 788 790 792 794 795 797 798 800 801 803 804 805 806 807 808 810 812 813 814 815 815 816 816 817 817 817 818 819 819 819 820 820 820 821 821 821 821 821 822 822 822 823 823 824 824 825 826 826 827 828 828 829 829 830 830
767 768 770 772 778 780 790 796 794 794 783 778 776 766 764 766 766 765 766 767 764 763 763 766 767 771 779 775 773 773 771 773 772 773 774 776 778 780 782 783 785 787 789 791 793 795 796 798 799 801 802 803 805 806 807 808 809 811 812 814 815 815 816 817 817 818 818 819 820 820 820 821 821 821 821 822 822 822 822 822 823 823 823 824 824 825 825 826 826 827 828 828 829 830 830 831 831
766 770 775 778 785 789 796 796 793 794 783 777 774 765 766 768 767 766 767 767 767 767 767 768 766 773 781 775 777 775 770 772 771 773 775 777 779 780 782 784 786 788 791 792 794 796 797 799 800 802 803 804 805 806 808 809 810 811 813 814 815 816 817 817 818 819 819 820 821 821 822 822 822 822 823 823 823 823 823 823 824 824 824 825 825 825 825 826 827 828 829 829 830 831 831 832 832
766 771 777 781 790 795 798 796 793 792 783 777 773 767 768 768 767 768 768 767 767 769 770 769 766 774 780 778 780 775 771 773 772 774 776 778 780 781 783 785 788 789 792 793 795 797 798 800 801 802 803 804 806 807 808 809 810 812 813 814 815 816 817 818 819 820 820 821 822 822 823 823 823 823 824 824 824 824 824 824 824 825 825 825 825 825 826 826 827 829 830 830 831 832 832 833 833
769 772 778 784 792 797 799 797 791 788 781 777 773 768 769 767 767 767 768 767 765 769 771 767 768 774 779 782 782 776 774 774 773 776 777 779 780 782 785 787 789 790 792 794 796 798 799 801 802 803 804 805 806 807 808 809 810 812 813 814 816 817 818 819 819 820 821 822 823 823 823 824 824 824 825 825 825 825 825 825 825 826 826 826 826 826 827 827 828 829 830 831 832 833 833 833 833
774 775 777 787 794 797 797 795 789 784 779 776 771 766 767 765 766 767 766 767 765 769 770 767 773 776 779 783 782 776 775 775 774 777 779 780 782 784 786 788 790 791 792 794 797 799 800 802 803 804 804 805 806 807 808 809 811 812 813 815 816 817 818 819 820 821 822 823 823 824 824 825 825 825 826 826 826 826 826 826 826 827 827 827 827 827 827 828 829 830 831 832 833 834 834 834 834
776 780 780 789 795 793 794 793 788 783 779 776 769 763 763 763 766 767 765 766 766 770 768 766 771 773 781 786 781 777 776 777 776 777 780 781 783 785 787 789 791 793 794 795 797 799 800 802 803 804 805 806 807 808 809 810 811 812 814 815 817 818 819 820 821 822 823 824 824 825 825 826 826 826 827 827 827 827 827 827 828 828 828 828 828 828 829 829 830 831 832 833 834 835 835 834 834
776 782 782 789 793 791 792 792 787 784 779 772 766 760 760 761 762 761 761 763 765 770 766 762 765 769 781 785 780 778 777 777 777 778 780 782 784 787 789 790 792 794 795 796 797 799 801 802 803 804 805 806 808 809 809 811 812 813 814 816 817 819 820 821 822 823 824 825 825 826 827 827 827 828 828 828 828 828 828 828 828 829 829 830 829 830 830 830 831 832 833 834 835 835 836 835 835
773 778 779 787 795 791 787 788 786 786 778 766 762 758 757 758 756 756 758 762 765 765 760 757 760 768 779 784 783 779 777 777 778 779 781 783 786 788 790 792 794 795 796 797 798 799 801 802 803 805 806 807 808 809 810 811 812 814 815 817 818 819 821 822 823 824 825 826 826 827 827 828 828 829 829 829 829 829 829 829 829 830 830 830 831 831 831 831 832 832 833 834 835 836 836 836 836
772 776 778 785 792 790 785 784 782 783 776 763 759 757 756 755 753 756 755 758 763 757 755 758 758 765 774 778 780 775 774 777 778 780 782 785 787 789 791 793 795 796 797 798 798 799 800 802 803 805 806 807 809 810 811 812 813 815 816 817 818 820 821 822 823 824 826 827 827 828 828 829 829 829 830 830 830 830 830 830 830 830 830 831 831 832 832 832 832 833 834 834 835 836 836 836 836
770 774 780 786 789 788 785 783 781 782 773 761 758 757 758 754 751 755 750 749 759 756 756 761 759 761 766 768 769 768 773 777 778 781 782 786 788 790 793 794 796 796 798 798 799 800 800 802 803 805 806 808 809 810 811 812 814 815 817 818 819 820 821 822 824 825 826 827 828 828 829 829 830 830 830 830 830 830 830 830 830 831 831 831 832 832 833 833 833 833 834 834 835 836 836 836 836
769 774 784 788 788 787 784 781 780 777 768 759 758 757 760 756 751 751 747 746 755 759 758 761 759 758 761 762 763 767 773 776 778 781 783 786 789 791 793 794 796 797 798 799 799 800 801 803 804 805 807 808 809 810 812 813 814 816 817 818 819 821 822 823 824 825 826 827 828 828 829 830 830 831 831 831 831 831 831 831 831 831 831 832 832 833 833 833 834 834 834 835 835 835 836 836 836
771 779 787 787 785 783 777 774 772 769 765 760 756 757 759 757 754 751 751 754 757 761 762 761 761 759 760 761 763 769 773 776 779 781 783 786 788 790 792 794 796 797 798 799 799 800 801 803 804 806 807 809 810 811 812 813 815 816 818 819 820 821 822 823 824 825 826 827 828 828 829 830 830 831 831 831 831 831 831 832 832 831 832 832 833 833 833 834 834 835 835 835 835 835 836 836 836
772 781 786 783 779 775 770 768 767 766 764 759 756 756 757 755 754 752 758 764 759 763 766 764 765 764 763 764 766 771 774 777 780 782 784 785 787 789 791 793 795 796 797 798 800 801 802 804 806 807 808 809 810 812 813 814 816 817 818 819 820 821 822 823 824 826 826 827 828 828 829 830 830 831 831 831 831 832 832 832 832 832 832 832 833 833 834 834 834 835 835 835 835 836 836 836 836
772 778 783 778 773 770 766 766 764 762 761 760 757 754 755 754 751 752 761 767 762 763 764 764 767 767 766 767 768 772 775 778 781 784 785 786 788 789 791 793 794 796 798 799 801 802 804 805 807 808 809 810 811 812 814 815 816 817 818 819 820 822 823 824 825 826 826 827 828 828 829 830 830 831 831 832 832 832 832 832 832 833 833 832 833 833 834 834 835 835 835 835 835 836 836 836 836
771 773 776 771 769 768 764 763 761 759 759 760 758 754 755 753 751 754 762 768 767 762 755 753 759 762 765 767 769 773 776 779 782 784 786 787 789 790 791 793 795 797 799 800 802 803 805 806 808 809 810 811 812 813 814 816 817 818 818 819 821 822 823 824 825 826 826 827 828 828 829 829 830 831 832 832 832 832 832 833 833 833 833 833 833 833 834 834 834 835 835 835 835 836 836 836 836
770 769 769 765 766 767 761 760 759 758 758 758 758 756 754 752 753 756 760 766 763 757 751 750 752 755 759 763 768 772 776 779 782 785 786 787 788 790 792 794 797 798 800 801 802 804 805 807 808 809 810 811 812 813 814 816 817 818 818 820 821 822 823 824 825 826 827 827 828 828 829 829 830 831 832 832 832 832 832 832 832 833 832 833 833 833 833 833 833 834 834 834 834 835 835 836 836
770 768 765 763 762 764 760 758 757 757 758 758 757 756 753 754 757 756 758 762 756 750 750 753 756 757 759 762 767 772 776 780 782 784 785 786 787 790 792 794 796 798 800 801 802 804 805 806 808 808 810 811 812 813 814 815 816 817 818 820 821 822 823 824 825 826 827 827 828 829 829 830 831 831 832 832 832 832 832 832 832 832 833 833 833 833 833 833 832 832 833 833 833 834 834 835 835
769 768 764 761 760 761 759 757 757 757 758 757 755 755 754 756 758 757 757 758 754 750 750 754 759 762 765 768 771 775 778 781 783 784 785 785 787 789 792 794 796 797 799 801 802 804 805 806 808 809 810 811 812 813 814 815 816 817 819 820 821 822 823 824 825 826 827 828 828 829 830 830 831 831 831 831 831 831 832 832 833 833 833 833 833 833 833 833 832 831 832 832 832 833 833 834 834
767 767 763 759 758 757 757 757 757 757 757 755 754 755 755 754 755 759 760 758 755 752 752 757 761 765 770 773 775 778 779 781 782 784 786 787 788 790 792 794 795 797 799 801 802 803 805 806 808 809 810 811 812 813 815 816 817 818 820 821 822 823 824 825 826 826 827 828 829 829 830 830 831 831 830 830 830 830 831 832 833 833 833 833 833 833 833 832 832 831 831 831 832 832 832 833 833
763 762 761 759 757 755 755 756 755 755 754 752 754 757 757 753 755 761 760 757 756 754 756 760 764 767 771 774 775 775 777 779 782 785 787 788 789 791 792 794 795 797 798 800 802 803 805 807 809 810 811 812 813 815 816 816 818 819 820 822 823 824 824 825 826 826 827 828 829 829 830 830 830 831 830 830 830 830 831 831 832 832 832 833 833 833 832 832 832 831 831 831 831 831 832 832 832
759 759 759 758 757 755 755 754 753 755 753 750 753 758 759 752 755 764 760 755 756 757 760 763 766 769 771 772 772 773 777 781 784 787 788 789 790 791 792 794 795 796 798 800 802 804 806 808 810 811 812 813 814 815 816 817 819 820 821 823 824 825 825 826 826 826 827 828 829 829 830 830 830 830 830 830 830 830 830 830 831 831 831 832 832 832 832 832 831 830 831 831 831 830 830 830 831
758 759 758 757 756 755 755 753 753 754 751 749 751 757 758 753 757 762 758 756 757 759 762 765 767 770 770 771 772 776 780 782 783 784 786 787 789 791 792 793 795 797 799 801 803 805 806 808 810 812 813 814 815 816 817 818 819 821 822 823 824 825 825 826 826 826 827 828 829 829 830 830 830 830 830 830 830 830 830 830 830 830 830 830 831 830 830 830 829 828 830 830 830 830 829 829 829
757 758 760 757 754 753 751 750 751 751 751 748 751 761 762 759 762 761 756 756 759 762 764 767 769 770 771 772 774 778 780 781 781 782 783 785 787 790 792 794 796 798 800 802 804 805 807 809 810 812 813 814 815 816 817 818 820 821 823 824 825 825 825 825 826 826 827 828 829 829 829 829 830 830 830 830 830 829 829 829 829 829 829 829 829 829 829 829 828 827 828 829 828 828 828 827 828
757 758 761 761 761 756 749 750 751 749 751 745 750 768 769 765 765 759 757 757 760 766 766 768 771 772 773 773 775 779 781 782 782 783 784 786 787 790 792 795 797 798 800 802 804 806 807 809 810 811 812 813 814 815 817 818 820 822 823 824 825 825 825 825 826 827 827 828 828 829 829 829 830 830 830 830 829 829 829 829 828 828 829 829 829 829 828 828 827 826 827 827 827 826 826 826 827
759 761 763 768 772 761 747 750 753 750 752 746 750 767 768 767 766 759 758 758 759 767 768 769 771 772 773 773 776 780 782 783 783 784 786 787 788 790 793 795 797 798 800 802 804 805 806 808 810 811 812 813 815 816 817 819 820 822 823 824 824 824 825 825 826 827 827 827 828 828 829 829 829 829 829 829 829 828 828 828 828 828 828 828 828 828 827 827 827 826 826 826 826 825 825 825 825
765 767 771 775 775 764 750 748 751 750 752 749 752 767 771 769 767 760 760 760 760 766 768 770 771 772 774 775 778 781 783 784 784 785 786 788 789 790 793 794 797 798 800 802 803 805 806 808 810 811 813 814 815 816 817 819 820 822 823 823 824 824 824 825 826 827 827 827 827 827 828 828 828 828 828 828 828 827 827 827 827 827 827 827 827 827 827 826 826 825 825 825 824 824 823 823 824
771 771 773 775 773 768 758 748 749 750 751 752 753 765 773 770 765 761 762 764 764 766 768 770 771 772 774 776 779 782 784 784 784 786 786 788 789 790 793 794 796 798 799 801 803 804 806 808 810 812 813 815 816 817 818 819 820 821 822 823 824 824 825 826 827 827 827 826 826 826 826 827 827 828 827 827 826 826 826 826 826 826 826 826 826 826 826 825 825 825 824 824 824 823 822 822 822
777 775 773 775 773 772 765 752 749 751 750 755 756 759 767 767 764 763 767 771 770 769 769 770 771 773 775 778 780 783 784 785 785 786 786 787 789 791 793 795 796 798 799 801 803 804 806 808 810 812 813 815 816 817 818 819 820 821 822 823 823 824 825 826 826 826 826 826 825 825 826 826 827 827 827 826 826 825 825 825 825 825 825 825 825 825 825 824 824 824 823 823 822 822 821 820 820
775 774 771 774 774 773 770 758 752 751 750 756 759 759 765 767 765 766 772 776 772 770 771 771 771 773 776 778 781 783 784 786 786 786 787 788 789 791 793 795 796 798 800 801 803 805 806 808 810 812 813 814 816 817 818 819 819 821 822 823 823 823 824 825 825 825 825 825 825 825 825 826 826 827 826 825 825 824 824 824 824 824 824 824 824 824 823 823 823 823 822 821 821 820 820 819 819
768 771 770 771 773 770 769 761 754 752 752 758 760 758 765 770 768 769 773 776 774 775 779 779 775 773 777 779 781 783 784 786 787 787 788 789 790 792 793 795 797 798 800 802 804 805 807 808 810 811 812 814 815 816 817 818 819 820 821 822 822 823 823 824 824 824 824 825 824 824 825 825 826 825 825 824 824 823 823 823 823 823 823 823 822 822 822 822 822 821 821 820 820 819 818 818 818
768 771 771 772 774 768 764 761 755 752 754 760 762 761 767 770 767 769 773 777 779 780 784 786 783 777 776 779 780 783 785 786 787 788 789 790 792 793 794 796 797 799 801 802 804 805 807 808 809 810 811 813 815 816 816 818 818 820 821 821 822 822 823 823 824 824 824 824 824 824 824 825 825 824 824 823 823 822 822 822 822 822 821 821 820 820 820 820 820 820 819 819 818 817 816 816 817
769 771 771 775 776 768 764 763 758 754 754 762 767 767 771 769 766 771 775 778 778 778 779 781 785 783 777 778 780 782 785 787 787 789 791 792 793 794 795 796 798 799 801 802 803 805 807 808 809 810 811 813 814 815 816 817 818 819 820 821 821 822 822 823 823 823 823 823 823 824 824 824 824 824 823 822 822 822 821 821 821 820 820 820 819 818 818 818 817 817 817 817 816 815 814 814 815
770 773 774 776 776 771 766 763 760 757 755 762 767 767 772 771 767 771 775 774 773 774 774 775 783 787 780 776 779 782 785 787 789 790 792 794 795 795 796 797 798 799 801 802 803 805 807 808 809 810 811 813 814 815 816 816 818 818 819 820 820 821 822 823 823 823 823 823 823 823 823 823 823 822 822 822 821 821 821 820 820 820 819 818 818 817 817 816 816 815 815 815 814 813 812 811 812
772 774 776 777 776 773 769 766 764 760 760 764 765 766 771 774 773 774 775 773 774 777 778 778 781 787 785 779 778 781 785 787 789 792 793 795 796 796 797 797 798 800 801 803 804 805 807 808 809 810 811 813 814 814 815 816 818 818 819 820 820 821 822 822 822 822 822 822 822 822 822 822 822 822 821 821 821 820 820 820 819 819 818 818 817 816 815 815 814 814 813 813 812 811 810 809 809
775 773 773 774 773 772 770 770 765 761 765 764 764 771 776 777 777 779 780 778 779 782 782 783 784 787 790 787 783 782 785 788 790 792 794 796 797 798 798 799 799 801 802 803 804 805 807 808 809 811 812 813 814 814 815 816 817 818 819 820 820 821 821 821 821 821 821 821 821 821 821 822 822 821 821 821 820 820 819 819 818 817 817 816 816 815 814 813 813 812 812 811 810 809 808 807 806
776 772 769 769 769 770 770 770 768 769 772 766 767 778 782 780 780 780 782 781 784 786 783 785 788 787 790 795 792 786 785 789 791 793 795 796 798 799 800 801 801 801 803 804 805 806 807 808 809 811 812 813 814 815 816 816 818 819 819 820 821 821 821 821 820 820 819 819 820 820 821 821 821 821 820 820 820 819 818 817 817 816 815 815 814 813 812 812 811 810 809 809 808 807 806 805 804
776 769 765 768 768 769 770 770 773 777 776 770 770 778 783 784 781 780 782 784 787 788 781 781 785 786 787 794 797 790 786 789 792 793 796 797 799 801 801 802 802 803 804 804 805 806 807 808 809 811 812 813 814 815 816 816 817 818 819 820 820 820 820 820 820 819 819 819 819 820 820 820 820 820 819 819 818 817 816 815 815 814 813 813 812 811 810 810 809 807 807 806 805 804 804 802 801
772 766 764 768 768 769 770 770 775 777 775 774 771 773 781 783 780 779 782 787 790 788 783 781 783 785 784 788 796 795 788 789 792 794 796 798 800 802 803 803 803 804 804 805 806 807 808 808 810 811 812 813 815 815 816 816 817 818 819 819 820 819 819 819 819 819 819 819 820 819 819 819 819 818 817 816 816 815 814 813 813 812 811 811 810 809 808 807 806 805 804 803 802 802 801 800 799
764 763 762 763 764 766 766 769 776 778 778 780 774 773 781 782 782 782 782 787 792 788 784 782 782 784 782 784 794 797 790 789 792 794 796 799 800 802 802 803 804 804 805 806 806 807 808 809 811 812 813 814 815 815 815 815 816 817 818 818 818 818 818 818 818 819 819 819 819 819 818 818 817 817 816 816 815 814 814 813 812 811 810 809 808 807 806 805 804 803 802 801 799 798 798 797 796
758 761 761 761 765 767 768 771 775 779 785 783 775 773 779 783 785 787 785 785 787 783 781 779 779 780 780 782 789 792 790 789 791 794 796 799 800 801 802 802 804 805 806 807 807 808 809 810 811 812 813 814 814 815 814 814 816 816 817 817 817 817 817 818 818 819 819 819 819 818 818 817 817 817 816 816 815 814 813 812 811 809 808 808 807 806 805 804 802 801 799 798 797 796 795 794 793
755 758 758 761 767 767 771 775 774 782 788 779 773 771 774 780 783 784 780 774 773 776 778 778 776 778 779 781 784 786 787 788 791 793 796 799 800 801 802 802 803 805 807 808 809 809 809 810 811 812 813 814 814 814 814 814 816 816 817 817 817 817 817 818 818 819 819 819 818 818 818 818 817 817 816 815 815 814 813 811 810 809 808 807 807 805 804 802 800 798 797 796 795 793 792 791 791
753 757 758 765 771 769 774 778 778 788 787 775 776 775 775 780 776 773 770 761 762 768 772 772 772 773 776 778 781 783 786 787 790 793 796 798 799 801 802 802 803 805 807 809 810 810 810 810 810 811 813 814 814 814 814 815 816 817 817 817 817 818 818 819 819 819 819 819 819 819 818 818 818 818 817 816 814 813 812 810 809 809 808 807 806 804 802 800 798 796 795 794 793 791 790 789 788
753 758 764 774 783 782 783 785 787 792 783 776 782 780 778 777 767 766 766 759 758 759 760 764 767 769 773 775 779 782 784 787 790 793 795 798 799 800 802 802 803 805 806 809 810 810 810 810 810 811 812 814 814 815 815 816 817 817 818 818 818 819 819 820 820 820 820 820 820 820 819 819 819 818 817 816 815 814 812 811 810 809 808 806 805 803 800 798 796 795 793 793 791 790 789 787 787
757 759 765 775 786 791 794 795 797 792 779 778 782 775 776 775 765 768 768 760 757 756 758 762 766 771 773 774 779 782 784 786 790 793 796 798 799 800 803 803 804 805 806 808 810 811 811 811 812 811 812 815 815 815 815 816 817 818 819 819 819 820 820 820 821 820 821 821 821 821 821 821 821 820 819 817 816 814 813 812 810 809 807 805 804 801 799 797 796 794 792 791 790 789 787 786 785
759 757 761 769 774 780 786 787 786 782 776 780 781 774 777 776 768 769 768 764 761 758 761 764 767 772 774 775 779 782 785 787 790 794 796 798 800 801 804 804 805 806 807 808 810 811 812 812 813 813 814 815 815 815 816 816 818 819 819 820 820 820 821 821 821 821 822 822 822 822 823 822 822 821 820 819 817 815 814 812 810 808 806 805 803 800 799 797 795 793 792 790 789 787 786 785 784
761 757 761 767 764 765 777 782 780 775 772 779 784 781 780 774 767 767 767 766 764 760 763 767 770 772 773 776 779 783 786 787 792 795 797 799 801 802 804 805 806 807 808 810 810 811 813 813 814 815 815 815 815 816 817 818 819 819 820 820 820 821 821 821 822 822 823 823 823 824 824 823 822 821 820 819 818 816 814 812 810 808 806 804 802 800 798 797 795 793 791 789 788 786 785 784 783
762 762 762 762 756 757 773 784 787 782 773 780 791 788 780 774 769 768 767 766 766 765 765 768 771 771 774 777 779 783 787 788 792 796 797 800 802 804 806 807 808 809 810 811 812 813 814 814 815 815 815 815 816 817 818 819 819 819 820 820 821 821 822 822 823 824 824 824 824 824 824 823 822 822 821 819 818 816 814 812 810 808 805 803 801 800 798 796 794 793 791 789 787 786 785 783 782
756 762 757 755 758 762 767 775 784 783 777 786 796 789 781 778 772 768 768 768 767 767 766 768 772 772 776 782 783 785 788 789 793 796 798 801 803 805 806 808 810 811 812 814 813 814 815 816 816 816 816 817 818 819 819 820 819 820 821 821 822 823 823 824 824 825 825 825 825 825 824 823 822 822 820 819 818 816 814 812 809 807 805 803 801 799 798 796 794 793 791 789 788 786 784 783 782
743 747 745 750 761 768 771 774 778 779 785 795 794 786 782 779 773 769 767 766 766 767 767 768 772 774 777 784 786 787 788 790 794 797 798 800 803 805 806 807 810 812 814 814 814 815 816 817 817 817 818 819 819 820 820 820 820 821 822 822 823 824 824 825 826 826 827 826 826 825 824 823 822 822 821 819 818 816 814 812 809 807 805 802 801 799 798 796 794 793 791 789 788 786 784 783 781
739 741 743 746 752 757 764 770 768 770 786 797 793 791 787 772 765 764 763 762 762 763 765 766 769 774 777 781 785 787 788 791 795 797 800 801 803 807 807 807 810 812 813 813 814 815 816 818 819 819 820 820 821 822 822 822 823 823 824 824 825 826 826 827 827 828 828 827 826 825 824 823 822 822 821 819 818 815 813 811 809 807 804 802 801 799 798 796 794 793 791 790 788 786 784 783 782
742 746 750 749 748 750 755 763 766 766 779 791 793 795 784 764 757 757 758 761 760 760 762 765 768 772 776 781 785 787 789 793 796 798 801 802 805 809 809 809 811 813 813 813 815 817 818 820 821 821 822 823 823 824 824 824 825 825 826 826 827 828 828 828 828 828 828 827 826 825 824 824 823 822 821 819 818 816 813 811 809 807 805 803 801 800 798 797 795 793 792 790 788 786 785 784 782
737 742 747 747 746 750 757 766 771 768 773 782 784 778 767 760 759 756 754 758 761 762 764 767 771 773 776 781 785 787 789 792 797 800 800 801 805 810 811 811 813 813 814 816 818 820 820 822 823 824 825 826 827 827 827 827 827 827 828 828 828 829 829 830 829 829 828 827 826 825 824 824 823 822 821 819 818 816 814 812 810 808 806 804 802 800 799 798 796 794 793 791 789 787 786 784 783